FW3054 Weather Reports


Display with metric or nautical units.
time (UTC)temp
F
wind
direction
speed
MPH
gust
MPH
rain 1hr
in
rain 24hr
in
rain mn
in
humidity
%
barometer
mb
20260502183522 60 23 4.0 11.0 0.00 0.00 0.00 35 1013.1
20260502182522 60 23 3.0 7.0 0.00 0.00 0.00 38 1013.1
20260502181522 59 23 3.0 7.0 0.00 0.00 0.00 36 1013.1
20260502180522 58 45 3.0 7.0 0.00 0.00 0.00 37 1013.1
20260502163521 59 23 2.0 6.0 0.00 0.00 0.00 38 1014.3
20260502162547 59 23 2.0 4.0 0.00 0.00 0.00 39 1014.5
20260502161521 59 23 1.0 5.0 0.00 0.00 0.00 42 1014.4
20260502160521 57 23 1.0 4.0 0.00 0.00 0.00 46 1014.3
20260502151522 53 0.0 3.0 0.00 0.00 0.00 55 1014.3
20260502150521 52 0.0 1.0 0.00 0.00 0.00 57 1014.4
20260502130521 50 0.0 1.0 0.00 0.00 0.00 69 1014.0
20260502123521 50 0.0 2.0 0.00 0.00 0.00 72 1014.0
20260502122521 50 0.0 2.0 0.00 0.00 0.00 72 1014.0
20260502121521 50 0.0 2.0 0.00 0.00 0.00 73 1013.9
20260502120521 50 0.0 2.0 0.00 0.00 0.00 73 1014.3
20260502115612 50 0.0 1.0 0.00 0.00 0.00 74 1013.9
20260502114546 50 0.0 2.0 0.00 0.00 0.00 74 1013.7
20260502113521 50 0.0 0.0 0.00 0.00 0.00 75 1013.7
20260502112521 50 0.0 1.0 0.00 0.00 0.00 74 1013.5
20260502111521 50 0.0 2.0 0.00 0.00 0.00 74 1013.3
20260502110521 50 23 1.0 2.0 0.00 0.00 0.00 74 1013.4
20260502105521 50 0.0 2.0 0.00 0.00 0.00 73 1013.6
20260502104521 50 0.0 1.0 0.00 0.00 0.00 73 1013.4
20260502103521 51 0.0 0.0 0.00 0.00 0.00 74 1013.2
20260502102521 51 0.0 1.0 0.00 0.00 0.00 73 1013.2
20260502101521 51 0 1.0 3.0 0.00 0.00 0.00 73 1013.2
20260502100521 51 0.0 1.0 0.00 0.00 0.00 73 1013.2
20260502091521 52 0.0 2.0 0.00 0.00 0.00 73 1013.3
20260502090521 52 0.0 1.0 0.00 0.00 0.00 73 1013.4
20260502071520 54 0.0 2.0 0.00 0.00 0.00 70 1013.8
20260502070520 54 0.0 1.0 0.00 0.00 0.00 72 1013.9
20260502065521 54 0.0 1.0 0.00 0.00 0.00 70 1013.8
20260502064520 54 0 1.0 3.0 0.00 0.00 0.00 70 1013.8
20260502063521 54 0.0 3.0 0.00 0.00 0.00 70 1013.9
20260502062521 54 23 1.0 3.0 0.00 0.00 0.00 70 1013.8
20260502061520 55 0 1.0 3.0 0.00 0.00 0.00 70 1013.8
20260502060521 55 0 1.0 5.0 0.00 0.00 0.00 70 1014.2
20260502055521 55 0.0 1.0 0.00 0.00 0.00 70 1014.3
20260502054520 55 0.0 3.0 0.00 0.00 0.00 69 1014.2
20260502053520 55 0.0 2.0 0.00 0.00 0.00 70 1014.3
20260502052520 55 0.0 1.0 0.00 0.00 0.00 70 1014.5
20260502051545 55 0.0 0.0 0.00 0.00 0.00 69 1014.3
20260502050520 55 0.0 1.0 0.00 0.00 0.00 68 1014.2
20260502045520 54 23 1.0 3.0 0.00 0.00 0.00 68 1014.0
20260502044520 54 0.0 3.0 0.00 0.00 0.00 69 1014.0
20260502043520 54 0.0 1.0 0.00 0.00 0.00 69 1014.0
20260502042520 54 0.0 1.0 0.00 0.00 0.00 68 1013.8
20260502041546 55 0.0 1.0 0.00 0.00 0.00 67 1014.1
20260502040520 55 0.0 0.0 0.00 0.00 0.00 65 1013.8
20260502035546 55 0.0 0.0 0.00 0.00 0.00 64 1013.7
20260502034521 55 0.0 1.0 0.00 0.00 0.00 63 1013.7
20260502033521 55 0.0 0.0 0.00 0.00 0.00 61 1013.7
20260502032521 56 0.0 0.0 0.00 0.00 0.00 61 1013.7
20260502031520 56 0.0 0.0 0.00 0.00 0.00 61 1014.0
20260502030611 56 0.0 0.0 0.00 0.00 0.00 60 1014.0
20260502025521 56 0.0 0.0 0.00 0.00 0.00 60 1014.0
20260502024520 56 0.0 0.0 0.00 0.00 0.00 60 1014.1
20260502023521 56 0.0 0.0 0.00 0.00 0.00 60 1013.7
20260502022520 56 0.0 0.0 0.00 0.00 0.00 59 1013.7
20260502021546 56 0.0 0.0 0.00 0.00 0.00 58 1013.7
20260502020546 56 0.0 0.0 0.00 0.00 0.00 57 1013.5
20260502015520 56 0.0 0.0 0.00 0.00 0.00 57 1013.4
20260502014521 57 0.0 0.0 0.00 0.00 0.00 57 1013.4
20260502013520 57 0.0 0.0 0.00 0.00 0.00 56 1013.1
20260502012521 58 0.0 0.0 0.00 0.00 0.00 55 1013.0
20260502011520 58 0.0 0.0 0.00 0.00 0.00 53 1012.9
20260502010520 59 0.0 0.0 0.00 0.00 0.00 52 1012.6
20260502005520 59 0.0 0.0 0.00 0.00 0.00 50 1012.8
20260502004522 60 0.0 0.0 0.00 0.00 0.00 50 1012.8
20260502003520 61 0.0 1.0 0.00 0.00 0.00 50 1012.5
20260502002522 61 0.0 2.0 0.00 0.00 0.00 48 1012.5
20260502001520 61 23 1.0 3.0 0.00 0.00 0.00 43 1012.3
20260502000613 62 23 1.0 3.0 0.00 0.00 0.00 43 1012.1
20260501235547 62 23 1.0 3.0 0.00 0.00 0.00 44 1011.9
20260501234522 62 0 1.0 2.0 0.00 0.00 0.00 45 1011.6
20260501233612 62 0.0 1.0 0.00 0.00 0.00 47 1011.3
20260501232522 63 0.0 1.0 0.00 0.00 0.00 51 1011.6
20260501231522 63 0.0 1.0 0.00 0.00 0.00 50 1011.3
20260501230522 64 0.0 1.0 0.00 0.00 0.00 52 1011.2
20260501225522 64 0.0 0.0 0.00 0.00 0.00 56 1011.4
20260501224522 64 23 1.0 3.0 0.00 0.00 0.00 53 1011.5
20260501223522 65 0.0 0.0 0.00 0.00 0.00 55 1011.5
20260501222547 65 0.0 0.0 0.00 0.00 0.00 54 1012.1
20260501221522 65 0.0 0.0 0.00 0.00 0.00 52 1012.0
20260501220547 65 0.0 0.0 0.00 0.00 0.00 53 1012.2
20260501215522 66 0.0 1.0 0.00 0.00 0.00 52 1012.2
20260501214522 66 0.0 1.0 0.00 0.00 0.00 52 1012.2
20260501213522 66 0.0 1.0 0.00 0.00 0.00 52 1012.1
20260501212522 66 0.0 0.0 0.00 0.00 0.00 50 1012.2
20260501211522 66 0.0 1.0 0.00 0.00 0.00 51 1012.2
20260501210522 66 0.0 1.0 0.00 0.00 0.00 50 1012.3
20260501205522 66 0.0 2.0 0.00 0.00 0.00 51 1012.3
20260501204522 67 0.0 1.0 0.00 0.00 0.00 50 1012.4
20260501203547 67 0.0 1.0 0.00 0.00 0.00 49 1012.5
20260501202522 67 135 1.0 2.0 0.00 0.00 0.00 50 1012.4
20260501201522 68 68 1.0 3.0 0.00 0.00 0.00 49 1012.7
20260501200522 68 158 1.0 2.0 0.00 0.00 0.00 50 1012.9
20260501195522 67 135 1.0 2.0 0.00 0.00 0.00 49 1012.8
20260501194522 68 135 1.0 2.0 0.00 0.00 0.00 51 1013.0
20260501193522 68 135 1.0 3.0 0.00 0.00 0.00 48 1013.1
20260501192522 68 135 1.0 2.0 0.00 0.00 0.00 48 1013.1
20260501191522 68 225 1.0 3.0 0.00 0.00 0.00 45 1013.2
20260501190522 68 135 1.0 4.0 0.00 0.00 0.00 46 1013.5
20260501185522 67 113 1.0 3.0 0.00 0.00 0.00 47 1013.6
20260501184522 67 113 2.0 3.0 0.00 0.00 0.00 46 1013.7